Fort Wayne Police Department
Fort Wayne Police Department
Emergencies Call: 911
Non-Emergencies: (260) 427-1222
report drug house

Daily Activity Logs

Activity Log for January 14, 2014 Community Search

Incident Time Nature Address
14F005595 00:03:34 48 SUSPICIOUS 400 MADISON ST
14F005596 00:06:30 66 72 HOUR 2200 RANDALLIA DR
14F005597 00:17:50 96 BATTERY 700 BROADWAY
14F005598 00:24:30 911 HANG UP 3600 CALHOUN ST S
14F005599 00:29:54 43 DISTURBANCE 5900 DECATUR RD
14F005601 00:52:01 46,96 2400 SWEET CIDER RD
14F005602 00:55:57 50JO 6500 COVINGTON RD
14F005603 00:57:09 102,TX THREATS 3000 WAYNEDALE BLVD
14F005604 01:03:26 96JO 2600 CENTRAL DR
14F005605 01:09:04 1 MEET 1900 GREENTREE CT
14F005606 01:11:27 16V PICKUP VID 00 MAIN ST E
14F005607 01:12:56 30 TRAFFIC STOP 1100 PARK AVE
14F005608 01:16:55 30 TRAFFIC STOP 300 DUPONT RD E & DUPONT VILLAGE E
14F005609 01:33:36 63 CONTACT 7500 BEATY AVE
14F005610 01:56:14 40A AUDIBLE 1000 CLINTON ST S
14F005611 02:04:36 101 OPEN DOOR 5200 VALUE DR
14F005612 02:31:48 46 DOMESTIC 6800 WOODCREST DR
14F005613 02:45:35 65A SUICIDE ATT 2200 RANDALLIA DR
14F005614 02:46:12 43,62 1600 HARRISON ST N
14F005615 02:46:20 113 SHOTS FIRED 2100 EDEN ST
14F005616 02:55:26 39R STOLEN RECO 2100 EDEN ST
14F005617 02:59:58 30 TRAFFIC STOP 2800 MAIN ST W & JEFFERSON BLVD W
14F005618 03:04:42 48 SUSPICIOUS 7800 MAYSVILLE RD
14F005619 03:07:38 113 SHOTS FIRED 2900 BOWSER AVE
14F005622 03:39:00 25HS HIT SKIP 2100 WASHINGTON BLVD E & GLASGOW A
14F005621 03:40:15 43 DISTURBANCE 1300 SCOTT AVE
14F005620 03:40:19 15 ASSIST 1300 CREIGHTON AVE E
14F005623 03:43:54 44 NUISANCE 2300 HOAGLAND AVE
14F005625 03:55:03 25 PD ACCIDENT 2900 MAUMEE AVE
14F005624 03:56:25 48 SUSPICIOUS 700 KINNAIRD AVE
14F005626 04:02:52 101 OPEN DOOR 7700 STATE BLVD E
14F005627 04:08:19 63 CONTACT 9500 SHADECREEK PL
14F005628 04:17:48 66V MENTAL VIOL 2100 MINER ST
14F005629 04:21:53 44 NUISANCE 8400 LAKESIDE DR
14F005630 04:30:00 23 VANDALISM 1300 SCOTT AVE
14F005631 04:37:18 99 NARCOTICS 00 MAIN ST E
14F005632 04:39:47 16V PICKUP VID 00 MAIN ST E
14F005633 04:40:08 129 5600 GAYWOOD DR
14F005634 04:41:12 66 72 HOUR 2200 RANDALLIA DR
14F005636 04:58:03 48,36 1900 GOSHEN RD & HARRIS RD
14F005637 04:58:17 40A AUDIBLE 1600 THIRD ST
14F005635 04:59:22 129 2500 OAKWOOD DR
14F005638 05:14:28 44LM 1600 HOBSON RD
14F005639 05:26:43 40H HOLDUP ALRM 2300 CALHOUN ST S
14F005640 05:31:16 34 TRAFF HAZARD 2400 GOSHEN RD
14F005641 05:43:16 911 HANG UP 9700 ST JOE CENTER RD
14F005642 05:46:09 51,35 1500 TECUMSEH ST
14F005643 06:03:33 40P PANIC ALARM 1300 FERGUSON AVE
14F005644 06:06:33 50IP BURG I/P 2500 FREEMAN ST
14F005645 06:11:07 30 TRAFFIC STOP 1400 CLINTON ST N
14F005646 06:22:20 EMS 3200 BARR ST S
14F005647 06:42:15 911 HANG UP 3100 LILLIE ST
14F005648 06:51:33 25 PD ACCIDENT 3500 VARSITY LN
14F005649 07:08:54 22I JUV INVEST 3500 TAYLOR ST
14F005651 07:15:26 25 PD ACCIDENT 6700 BRADBURY AVE
14F005650 07:16:19 30 TRAFFIC STOP 2100 WINCH ST
14F005652 07:21:52 66 MENTALLY ILL 6500 COVINGTON RD
14F005653 07:28:54 33,34 8500 LIMA RD & WINDSOR RD
14F005654 07:34:02 34 TRAFF HAZARD 1700 OXFORD ST & ANTHONY BLVD S
14F005655 07:39:04 43 DISTURBANCE 400 STATE BLVD E
14F005656 07:39:08 48,35 4600 WERLING DR
14F005657 07:44:42 25 PD ACCIDENT 10600 LIMA RD & BROKEN OAK RD
14F005658 07:54:03 46 DOMESTIC 1000 STOPHLET ST
14F005659 07:58:27 102 THREATS 2600 CLARA AVE
14F005660 07:59:45 26 PI ACCIDENT 5600 COVENTRY LN
14F005661 08:01:50 25 PD ACCIDENT 1600 ST JOE RIVER DR
14F005662 08:03:15 25 PD ACCIDENT 2600 DUPONT COMMERCE CT & DUPONT C
14F005663 08:05:23 25 PD ACCIDENT 2200 HOBSON DR & STATE BLVD E
14F005664 08:06:29 40A AUDIBLE 8600 BROOKLINE CT
14F005665 08:08:32 40I INTRUSION 6300 LIMA RD
14F005666 08:10:07 51 THEFT 2100 FOX AVE
14F005667 08:15:03 25 PD ACCIDENT 5700 STATE BLVD E
14F005668 08:16:23 25 PD ACCIDENT 3900 DICKE RD
14F005669 08:16:51 53 ARMED ROB 9100 LIMA RD
14F005670 08:19:26 HARASSMENT 4600 FAIRLAWN PASS
14F005671 08:20:30 43 DISTURBANCE 4100 AVONDALE DR
14F005672 08:23:48 129 3700 SADDLE DR E & CARRIAGE LN
14F005673 08:31:37 25 PD ACCIDENT 1400 ARDMORE AVE & JEFFERSON BLVD
14F005674 08:38:19 40A AUDIBLE 2900 ALEXANDER ST
14F005675 08:43:56 30 TRAFFIC STOP 1000 WASHINGTON BLVD E & COMPARET
14F005676 08:53:19 1 MEET 1800 BLUFFTON RD
14F005677 08:55:08 51 THEFT 3300 CHESTNUT ST
14F005678 09:05:17 25 PD ACCIDENT 4700 LIMA RD & PRODUCTION RD
14F005679 09:07:36 101 OPEN DOOR 400 PONTIAC ST W
14F005680 09:09:12 108 FOLLOWUP 5600 PLAZA DR
14F005681 09:09:12 40A AUDIBLE 2800 LOWER HUNTINGTON RD
14F005682 09:11:17 46 DOMESTIC 1200 ELIZA ST
14F005683 09:16:05 55 FIGHT 400 STATE BLVD E
14F005684 09:16:56 00 MAIN ST E
14F005685 09:21:12 33,34 600 WALLACE ST E & HANNA ST S
14F005688 09:30:55 39U UNAUTHORIZE 1100 FAYETTE DR
14F005687 09:32:23 40A AUDIBLE 3700 OAKHURST DR
14F005686 09:32:31 33,34 7300 ANTHONY BLVD S & TILLMAN RD E
14F005689 09:33:03 50,ATTEMPTED 500 FOURTH ST W
14F005691 09:40:18 43 DISTURBANCE 3800 LAFAYETTE ST S
14F005692 09:40:57 96 BATTERY 600 MAIN ST W
14F005694 09:44:56 48,36 1700 TRINITY BLVD
14F005693 09:45:47 129 5300 PORTA TRL
14F005695 09:48:00 911 HANG UP 4700 PARNELL AVE
14F005696 09:53:28 66 MENTALLY ILL 500 BERRY ST W
14F005704 09:56:07 51 THEFT 6800 LUDWIG CIR
14F005699 10:04:09 102,TX THREATS 2000 BAYVIEW DR
14F005697 10:06:33 40A AUDIBLE 700 COLISEUM BLVD W
14F005705 10:06:51 46 DOMESTIC 2500 BELFAST DR
14F005698 10:08:11 65T SUICIDE THR 2500 LAKE AVE
14F005700 10:13:15 25 PD ACCIDENT 1400 ANTHONY BLVD N & LAKE AVE
14F005701 10:16:46 51 THEFT 4100 STRATHDON DR
14F005703 10:20:19 40 ALARM 1000 NORTHWOOD BLVD
14F005702 10:21:02 14S SERVING WAR 100 BERRY ST W
14F005706 10:22:28 15,84 ASS URGEN 1000 LAKE AVE
14F005707 10:29:41 17 MOTOR CHECK 7400 HOPE FARM RD
14F005708 10:38:02 46 DOMESTIC 3400 DIPLOMAT DR
14F005711 10:39:57 63 CONTACT 2400 CLINTON ST S
14F005710 10:40:19 30 TRAFFIC STOP 1900 WASHINGTON BLVD E & GRANT AVE
14F005712 10:55:47 30 TRAFFIC STOP 1900 WASHINGTON BLVD E & GRANT AVE
14F005714 10:58:21 16 PICK UP ITEM 900 JEFFERSON BLVD W
14F005715 11:04:59 46 DOMESTIC 4500 COLONIAL AVE S
14F005716 11:10:55 40H HOLDUP ALRM 2300 CALHOUN ST S
14F005718 11:14:36 63 CONTACT 4900 OLIVER ST
14F005717 11:16:58 911 HANG UP 2300 KERRIGANS WAY
14F005719 11:21:11 911 HANG UP 1700 EDSALL AVE
14F005721 11:27:41 25HS HIT SKIP 5600 HUGUENARD RD
14F005720 11:28:27 51JO 3600 DUPONT RD E
14F005722 11:35:54 46 DOMESTIC 1500 SHERMAN BLVD
14F005724 11:41:01 25 PD ACCIDENT 500 AIRPORT EXPRESSWAY & FAIRFIELD
14F005723 11:41:21 103 UNWANTED 1900 BROADWAY
14F005725 11:44:01 30 TRAFFIC STOP 1900 WASHINGTON BLVD E & GRANT AVE
14F005726 11:45:58 911 HANG UP 5900 WESTHILLS RD
14F005727 11:46:39 65T SUICIDE THR 1600 HARRISON ST N
14F005728 11:54:45 63 CONTACT 900 WASHINGTON BLVD E
14F005729 11:58:35 48 SUSPICIOUS 9600 STOWAWAY CV & DRAKES BAY RUN
14F005730 12:05:00 47 REMOVE ITEMS 1900 LAFAYETTE ST S
14F005731 12:05:57 911 HANG UP 5500 US 30 W
14F005732 12:10:30 30 TRAFFIC STOP 200 FOURTH ST E
14F005733 12:14:47 30 TRAFFIC STOP 1400 SPY RUN AVE
14F005734 12:15:40 48,36 500 JEFFERSON BLVD E
14F005735 12:16:39 28 DUI 3800 CALHOUN ST S & RUDISILL BLVD
14F005736 12:21:50 43,62 5900 ILLINOIS RD
14F005737 12:27:09 99 NARCOTICS 5300 COLDWATER RD
14F005738 12:32:57 62 PARTY ARMED 2200 ARDMORE AVE
14F005739 12:36:44 25HS HIT SKIP 3800 WENONAH LN
14F005741 12:37:15 50 BURGLARY 2100 CHARTWELL DR
14F005740 12:40:02 HARASSMENT 11600 MAGNOLIA DR
14F005742 12:41:20 40A AUDIBLE 6700 WOODLYNN DR
14F005743 12:47:07 HARASSMENT 00 COUNTRY FOREST DR
14F005744 12:50:24 25HS HIT SKIP 3800 LIMA RD
14F005748 12:52:39 37 PARKING VIOL 2500 DUPONT RD E
14F005745 12:52:58 911 HANG UP 2200 MAUMEE AVE
14F005746 12:55:49 51IP 1400 APPLE GLEN BLVD
14F005774 12:57:11 46,96 7900 JEFFERSON BLVD W
14F005747 13:05:52 41 MAN DOWN 2900 LOWER HUNTINGTON RD
14F005749 13:12:56 51 THEFT 10100 WHITE CEDAR RD
14F005751 13:14:29 911 HANG UP 4000 CLINTON ST N
14F005750 13:15:19 HARASSMENT 800 WALNUT ST
14F005752 13:17:27 40A AUDIBLE 4000 STRATHDON DR
14F005753 13:20:42 48 SUSPICIOUS 2200 RANDALLIA DR
14F005754 13:21:48 40A AUDIBLE 3100 ANTHONY BLVD S
14F005755 13:23:05 101 OPEN DOOR 2700 CALHOUN ST S
14F005756 13:24:40 17 MOTOR CHECK 1800 ANTHONY BLVD S
14F005758 13:30:53 25 PD ACCIDENT 3800 ANTHONY BLVD N & COLISEUM BLV
14F005757 13:32:17 16V PICKUP VID 00 MAIN ST E
14F005762 13:39:41 911 HANG UP 7100 SWEETBRIAR DR
14F005760 13:41:14 96JO 500 CREIGHTON AVE W & FAIRFIELD AV
14F005761 13:43:23 911 HANG UP 1300 ORCHARD ST
14F005783 13:43:30 17 MOTOR CHECK 2400 CASS ST
14F005763 13:45:46 911 HANG UP 3700 OLIVER ST
14F005772 13:46:52 48 SUSPICIOUS 00 MAIN ST E
14F005780 13:47:33 99 NARCOTICS 8200 BRIDGEWAY LN
14F005764 13:47:41 911 HANG UP 300 WASHINGTON BLVD E
14F005768 13:48:27 43 DISTURBANCE 3200 HARRISON ST S
14F005765 13:51:00 TOW 8500 BLUFFTON RD
14F005766 13:51:05 129 5400 ASHLAND DR
14F005767 13:51:22 55 FIGHT 9100 WINCHESTER RD
14F005773 13:53:57 48 SUSPICIOUS 1100 STATE BLVD W
14F005769 13:54:51 30 TRAFFIC STOP 4200 WELLS ST & LIMA RD
14F005770 13:55:24 129 7400 TIPPERARY TRL
14F005771 13:55:42 129 7400 ANTEBELLUM BLVD
14F005777 13:57:04 39 STOLEN VEHIC 4400 HANNA ST S
14F005776 13:58:42 48,36 2600 LYNN AVE
14F005775 14:03:08 33,34 2400 AMERICAN WAY & BLUFFTON RD
14F005785 14:03:24 102 THREATS 00 MAIN ST E
14F005778 14:05:46 33,34 1300 LINDENWOOD AVE
14F005779 14:05:53 65T SUICIDE THR 400 STATE BLVD E
14F005781 14:06:01 51 THEFT 1400 APPLE GLEN BLVD
14F005782 14:08:39 33,34 900 UNIVERSITY ST & WASHINGTON BLV
14F005784 14:10:16 25 PD ACCIDENT 6200 STATE BLVD E & MAPLECREST RD
14F005786 14:13:47 HARASSMENT 1900 BROADWAY & TAYLOR ST
14F005787 14:14:46 99 NARCOTICS 2300 FLORIDA DR
14F005788 14:18:40 25 PD ACCIDENT 3200 STATE BLVD E
14F005792 14:19:21 17 MOTOR CHECK 6000 REVERE PL
14F005789 14:20:31 1 MEET 400 STATE BLVD E
14F005790 14:21:28 30 TRAFFIC STOP 1300 WASHINGTON CENTER RD E
14F005791 14:21:52 16V PICKUP VID 00 MAIN ST E
14F005793 14:23:25 48 SUSPICIOUS 2900 BOWSER AVE & COLERICK ST
14F005794 14:23:59 33,34 400 JEFFERSON BLVD E & CLAY ST
14F005795 14:26:22 129 5700 ROARING FORK RUN
14F005797 14:26:54 911 HANG UP 1800 GREENTREE CT
14F005798 14:29:01 40A AUDIBLE 5000 TYRONE RD
14F005799 14:31:55 51 THEFT 2100 LAKE AVE
14F005800 14:34:29 911 HANG UP 10900 ABOITE CENTER RD
14F005801 14:38:23 129 4500 WINDING WAY DR
14F005802 14:39:41 37 PARKING VIOL 1200 FULTON ST
14F005804 14:39:48 1 MEET 6800 BLUFFTON RD
14F005803 14:40:17 30 TRAFFIC STOP 2600 WELLS ST & RUSSELL AVE
14F005805 14:41:04 102,TX THREATS 2600 CLE ELUM DR
14F005807 14:42:14 48 SUSPICIOUS 2400 FILLMORE ST
14F005806 14:44:45 30 TRAFFIC STOP 1200 GLENCARIN BLVD & ILLINOIS RD
14F005810 14:46:33 25 PD ACCIDENT 3200 DUPONT RD E & I 69 NB
14F005808 14:47:14 51 THEFT 4000 PARNELL AVE
14F005812 14:47:41 63 CONTACT 5000 BLUFFTON RD
14F005811 14:48:08 11C CAGE CAR 200 PETTIT AVE E
14F005809 14:48:11 33J LOCKED OUT 2700 STATE BLVD E & BEACON ST
14F005823 14:48:31 1 MEET 800 TENNESSEE AVE
14F005814 14:49:25 11C CAGE CAR 00 MAIN ST E
14F005816 14:49:39 46 DOMESTIC 4700 FOXGROVE AVE
14F005815 14:51:30 30 TRAFFIC STOP 5000 ST JOE RD & CANTERBURY BLVD
14F005817 14:52:40 46 DOMESTIC 6200 STATE BLVD E
14F005818 14:56:37 51 THEFT 6000 STATE BLVD E
14F005819 14:57:19 30 TRAFFIC STOP 300 SUPERIOR ST E & LAFAYETTE ST S
14F005822 14:58:44 50 BURGLARY 3200 FELICIAN ST
14F005820 15:00:16 30 TRAFFIC STOP 2000 CAPITOL AVE & PLAZA DR
14F005853 15:01:18 17 MOTOR CHECK 800 HAYDEN ST
14F005821 15:01:27 50 BURGLARY 6200 SOUTHBEND DR
14F005824 15:05:43 14 WARRANT 00 MAIN ST E
14F005826 15:06:07 66 72 HOUR 2200 RANDALLIA DR
14F005825 15:06:30 40H HOLDUP ALRM 5700 THORNBRIAR LN
14F005827 15:10:54 14 WARRANT 00 MAIN ST E
14F005829 15:14:46 11C CAGE CAR 00 MAIN ST E
14F005828 15:15:46 11C CAGE CAR 900 THOMAS RD S
14F005830 15:23:21 1 MEET 2200 OLIVER ST & CREIGHTON AVE E
14F005835 15:24:17 17 MOTOR CHECK 5700 MASON DR
14F005831 15:25:04 51,35 5600 COVENTRY LN
14F005833 15:25:14 46 DOMESTIC 1600 KELLY DR
14F005832 15:25:35 25HS HIT SKIP 3500 BROADWAY & BLUFFTON RD
14F005836 15:26:53 911 HANG UP 1400 GREENE ST
14F005834 15:28:11 96IP 800 GREENLAWN AVE & SHERMAN BLVD
14F005837 15:28:14 40 ALARM 5200 JEFFERSON BLVD W
14F005840 15:31:28 46,96 400 ESSEX LN W
14F005838 15:32:23 30 TRAFFIC STOP 7000 COLDWATER RD & SPRINGBROOK RD
14F005839 15:33:28 TOW 2600 PONTIAC ST E
14F005841 15:34:16 911 HANG UP 6700 ANTHONY BLVD S
14F005842 15:39:23 37 PARKING VIOL 2000 PHENIE ST
14F005843 15:40:53 38 LOST/STOLEN 3600 WASHINGTON BLVD E
14F005851 15:47:36 17 MOTOR CHECK 4500 GAYWOOD DR
14F005847 15:48:56 42 INTOX PERSON 1700 BEACON ST
14F005844 15:51:22 30 TRAFFIC STOP 2400 PARNELL AVE & NETTIE AVE
14F005846 15:52:13 40A AUDIBLE 11100 CARRIAGE PL
14F005845 15:52:16 30 TRAFFIC STOP 3800 CALHOUN ST S & RUDISILL BLVD
14F005849 15:55:11 17 MOTOR CHECK 200 FERNHILL AVE E
14F005850 15:56:03 911 HANG UP 7900 JEFFERSON BLVD W
14F005865 15:56:16 97 FOUND ITEMS 00 MAIN ST E
14F005848 15:57:33 48,35 300 COX DR E & KENT RD
14F005854 15:59:19 63 CONTACT 600 LEWIS ST E & HANNA ST S
14F005852 15:59:40 22N CHILD NEGLE 5000 WHEATON CT
14F005856 16:03:43 46,96 1000 COLISEUM BLVD N
14F005855 16:04:05 34 TRAFF HAZARD 1700 SPY RUN AVE & LAWTON PL
14F005857 16:06:33 911 HANG UP 6000 CALHOUN ST S
14F005858 16:17:09 11C CAGE CAR 4200 COLDWATER RD
14F005859 16:25:29 30 TRAFFIC STOP 500 GUMPPER AVE & WARSAW ST
14F005860 16:27:18 911 HANG UP 5000 DECATUR RD
14F005861 16:28:40 129 4600 WOODWAY DR
14F005862 16:30:01 30 TRAFFIC STOP 7500 SOUTHTOWN XING
14F005863 16:37:20 16,97 7600 COLDWATER RD
14F005864 16:37:58 51 THEFT 3600 ANTHONY BLVD N
14F005866 16:38:19 30 TRAFFIC STOP 7100 HICKORY CREEK DR & LOWER HUNT
14F005867 16:42:56 30 TRAFFIC STOP 300 COLISEUM BLVD E & COLDWATER RD
14F005868 16:45:00 51 THEFT 100 ESSEX LN W
14F005869 16:47:57 37 PARKING VIOL 300 OAKDALE DR W
14F005870 16:49:41 30 TRAFFIC STOP 3600 CRESCENT AVE & KIRKWOOD DR
14F005872 16:50:02 48 SUSPICIOUS 1600 BARTHOLD ST
14F005871 16:50:11 30 TRAFFIC STOP 2100 CLINTON ST S & DEWALD ST E
14F005929 16:51:03 50 BURGLARY 3200 LAFAYETTE ST S
14F005873 16:52:21 25 PD ACCIDENT 5000 INDUSTRIAL RD & LEY RD
14F005875 16:56:08 22I JUV INVEST 3100 ADAMS ST & EVANS ST
14F005874 16:57:09 46,96 00 MAIN ST E
14F005877 17:00:08 911 HANG UP 3300 COLISEUM BLVD W
14F005876 17:00:38 30 TRAFFIC STOP 1300 GOSHEN AVE
14F005878 17:04:36 911 HANG UP 8500 BLUFFTON RD
14F005879 17:07:35 25 PD ACCIDENT 4700 CLINTON ST N & PARNELL AVE
14F005883 17:09:45 37 PARKING VIOL 2200 HENSCH ST
14F005880 17:11:34 30 TRAFFIC STOP 4200 WELLS ST & LIMA RD
14F005881 17:11:44 25 PD ACCIDENT 10000 AUBURN RD & DUPONT CIRCLE DR
14F005882 17:12:40 55 FIGHT 800 WALNUT ST
14F005939 17:13:45 50 BURGLARY 600 RUDISILL BLVD E
14F005884 17:15:06 25 PD ACCIDENT 200 RUDISILL BLVD E & CLINTON ST S
14F005885 17:15:53 911 HANG UP 2400 MINER ST
14F005886 17:16:09 48 SUSPICIOUS 2100 FOX AVE & DEWALD ST W
14F005919 17:18:13 45 NEIGHBORHOOD 2900 CHESTNUT ST
14F005888 17:19:40 34 TRAFF HAZARD 5700 ANTHONY BLVD S & PAULDING RD
14F005887 17:19:44 TOW 7300 MILL RUN DR
14F005889 17:21:57 48,36 900 LIBERTY ST & BEGUE ST
14F005890 17:22:05 46 DOMESTIC 1300 JEFFERSON BLVD W
14F005891 17:24:14 46,96 100 BAKER ST W
14F005894 17:25:27 25HS HIT SKIP 2600 ST JOE CENTER RD & MARTIN LUT
14F005892 17:29:02 30 TRAFFIC STOP 4900 COLDWATER RD
14F005895 17:30:45 25 PD ACCIDENT 100 JEFFERSON BLVD E & CALHOUN ST
14F005893 17:31:14 30 TRAFFIC STOP 30200 I 69 SB
14F005896 17:39:29 129 2000 FOXCHASE RUN
14F005898 17:41:52 66 MENTALLY ILL 5700 LOIS LN
14F005897 17:42:57 51,35 7900 SHAKER CT
14F005899 17:46:57 102 THREATS 10500 MAYSVILLE RD
14F005900 17:52:08 30 TRAFFIC STOP 300 COLISEUM BLVD E & COLDWATER RD
14F005901 17:52:33 48,36 1000 DEARBORN ST & LAKE AVE
14F005902 17:55:31 30 TRAFFIC STOP 100 STATE BLVD E & CLINTON ST N
14F005905 17:55:36 25 PD ACCIDENT 7300 BELLWOOD DR
14F005903 17:55:37 26 PI ACCIDENT 2200 KENTUCKY AVE & STATE BLVD E
14F005904 17:57:22 30 TRAFFIC STOP 3400 COLISEUM BLVD W
14F005906 18:03:42 46 DOMESTIC 7800 HESSEN CASSEL RD
14F005907 18:05:08 911 HANG UP 800 REWILL DR
14F005908 18:11:49 43 DISTURBANCE 3700 ROBINWOOD DR
14F005909 18:17:51 30 TRAFFIC STOP 300 COLISEUM BLVD E & COLDWATER RD
14F005910 18:19:32 40A AUDIBLE 3400 AMULET DR
14F005911 18:20:59 40A AUDIBLE 7800 JEFFERSON BLVD W
14F005914 18:22:51 22I JUV INVEST 4000 WEBSTER ST
14F005912 18:24:12 30 TRAFFIC STOP 4300 LIMA RD & COLISEUM BLVD W
14F005913 18:26:17 51 THEFT 10900 SANDPIPER CV
14F005915 18:27:04 42 INTOX PERSON 4200 COLDWATER RD
14F005916 18:31:57 46,96 3700 WEBSTER ST
14F005920 18:34:37 33,34 5000 REED RD
14F005917 18:35:59 15 ASSIST 4200 CLINTON ST S
14F005918 18:37:11 30 TRAFFIC STOP 800 STATE BLVD W & SHERMAN BLVD
14F005921 18:45:23 EMS 1000 LAGRO DR
14F005923 18:46:03 40A AUDIBLE 1700 BROKEN OAK RD
14F005922 18:46:22 25HS HIT SKIP 4100 AVONDALE DR
14F005925 18:49:12 40A AUDIBLE 1300 LAFAYETTE ST S
14F005924 18:49:58 15 ASSIST 9100 CLINTON ST N & BROOKS RD
14F005926 18:52:09 25 PD ACCIDENT 100 CREIGHTON AVE E & CALHOUN ST S
14F005928 18:52:17 48,35 2100 CALHOUN ST S
14F005934 18:52:48 39R STOLEN RECO 100 BAKER ST W
14F005927 18:54:10 30 TRAFFIC STOP 900 SPRING ST & OAKLAND ST
14F005931 18:55:35 33,34 400 PERRY AVE
14F005932 18:58:24 103 UNWANTED 5800 CHALLENGER PKWY
14F005930 18:58:25 43,62 900 WASHINGTON BLVD E
14F005933 18:59:48 63 CONTACT 30400 I 69 SB
14F005936 19:02:38 63 CONTACT 700 EDGEWATER AVE
14F005935 19:04:48 48 SUSPICIOUS 2800 STATE BLVD E
14F005938 19:10:41 48,36 6300 TAYLOR ST
14F005937 19:12:05 30 TRAFFIC STOP 2500 PAULDING RD E & FRUEHAUF DR
14F005940 19:18:27 48 SUSPICIOUS 4000 REED ST
14F006009 19:19:55 11 PICK UP PRIS 700 BROADWAY
14F005942 19:20:54 911 HANG UP 2600 MARCY LN
14F005943 19:22:31 103 UNWANTED 100 FERNHILL AVE E
14F005941 19:23:13 129 3900 MCKINNIE AVE
14F005954 19:23:54 50 BURGLARY 5700 BOWSER AVE
14F005944 19:24:23 46 DOMESTIC 5800 ANTHONY BLVD S
14F005945 19:26:38 63 CONTACT 2300 HILLEGAS RD
14F005947 19:34:07 46,96 7900 DECATUR RD
14F005946 19:34:11 30 TRAFFIC STOP 1500 SHERMAN BLVD & SPRING ST
14F005948 19:35:18 63 CONTACT 7900 DECATUR RD
14F005949 19:38:59 51IP 10300 MAYSVILLE RD
14F005950 19:39:34 48 SUSPICIOUS 1400 APPLE GLEN BLVD
14F005951 19:40:00 43 DISTURBANCE 6000 MEADOWS DR
14F005952 19:43:20 129 5900 ST JOE RD
14F005953 19:43:33 129 6000 BECKER DR
14F005956 19:45:53 911 HANG UP 6500 ALVAREZ DR
14F005955 19:46:13 46,96 7900 CLARIDGE PL
14F005957 19:50:47 911 HANG UP 5400 CALHOUN ST S
14F005964 19:52:14 99 NARCOTICS 2800 DUPONT COMMERCE CT
14F005958 19:54:18 1 MEET 3500 HOAGLAND AVE
14F005959 19:55:40 46 DOMESTIC 1100 MAIN ST W
14F005960 20:02:00 911 HANG UP 5400 ROTHERMERE DR
14F005961 20:06:38 46 DOMESTIC 4800 SPATZ AVE
14F005962 20:07:27 113 SHOTS FIRED 3000 BARR ST S
14F005963 20:08:43 25 PD ACCIDENT 9900 DIEBOLD RD
14F005965 20:11:32 48,36 1400 GUTHRIE ST & THOMPSON AVE
14F005966 20:15:05 911 HANG UP 7500 SOUTHTOWN XING
14F005967 20:16:54 53 ARMED ROB 4300 ANTHONY BLVD S
14F005968 20:18:42 40P PANIC ALARM 200 RILEY PL
14F005969 20:20:29 911 HANG UP 4600 FAIRLAWN PASS
14F005970 20:21:20 46,96 2700 OAK BOROUGH RUN
14F005973 20:23:53 48 SUSPICIOUS 1200 ONEIDA ST
14F005974 20:24:17 911 HANG UP 2300 SHERMAN BLVD
14F005971 20:24:38 30 TRAFFIC STOP 2900 KINGSLEY DR
14F005972 20:25:06 51 THEFT 3900 JEFFERSON BLVD W
14F005977 20:31:38 48 SUSPICIOUS 2600 TERRACE RD
14F005975 20:32:05 46,96 800 THIRD ST & SHERMAN BLVD
14F005976 20:33:17 911 HANG UP 4600 FAIRLAWN PASS
14F005979 20:36:45 1 MEET 00 MAIN ST E
14F005980 20:38:47 66 72 HOUR 1700 BEACON ST
14F005978 20:39:34 911 HANG UP 2100 HOBSON RD
14F005981 20:43:35 911 HANG UP 1000 COLUMBIA AVE
14F005990 20:44:40 19 ESCORT 2700 JACOBS CREEK RUN
14F005983 20:46:34 43 DISTURBANCE 900 TENNESSEE AVE
14F005982 20:48:49 40 ALARM 3500 METRO DR N
14F005984 20:54:05 34 TRAFF HAZARD 3800 ANTHONY BLVD S & RUDISILL BLV
14F005985 20:56:35 40A AUDIBLE 3700 FOREST HILL AVE
14F005986 20:59:17 23 VANDALISM 3100 ALEXANDER ST
14F005988 21:02:49 25 PD ACCIDENT 800 STATE BLVD W & SHERMAN BLVD
14F005987 21:03:58 911 HANG UP 5300 REED ST
14F005989 21:08:41 1 MEET 3200 WASHINGTON BLVD E
14F005991 21:14:35 40A AUDIBLE 5000 NOB RD
14F005993 21:16:23 101 OPEN DOOR 4000 BOWSER AVE
14F005992 21:17:23 TOW 6000 INWOOD LN
14F005994 21:18:11 48,36 2700 FOX AVE
14F005996 21:18:38 25HS HIT SKIP 5700 ST JOE RD
14F005995 21:19:22 129 200 PETTIT AVE E
14F005997 21:20:07 911 HANG UP 600 KENWOOD AVE
14F005998 21:26:01 30 TRAFFIC STOP 3400 ANTHONY BLVD S
14F005999 21:26:03 43 DISTURBANCE 3500 COLISEUM BLVD W
14F006000 21:28:27 30 TRAFFIC STOP 6200 ST JOE CENTER RD & MAPLECREST
14F006001 21:29:37 22RC RECOVERY 800 POPLAR ST
14F006002 21:41:43 51 THEFT 4100 JEFFERSON BLVD W
14F006003 21:46:11 101 OPEN DOOR 2400 SHADY BROOK DR
14F006004 21:48:31 911 HANG UP 600 SENATE AVE & HANNA ST S
14F006006 21:53:11 48 SUSPICIOUS 7900 DECATUR RD
14F006005 21:54:05 129 1800 LIMA LN
14F006007 21:59:16 40A AUDIBLE 2200 JOHN ST
14F006010 22:03:23 911 HANG UP 300 JEFFERSON BLVD W
14F006008 22:04:38 48 SUSPICIOUS 600 LEWIS ST E
14F006011 22:08:36 48,35 5800 SOUTHBEND DR
14F006012 22:15:39 65A SUICIDE ATT 4400 ANTHONY BLVD S
14F006013 22:24:01 40I INTRUSION 4500 THORNGATE DR
14F006015 22:46:32 40A AUDIBLE 500 BRACKENRIDGE ST E
14F006014 22:47:15 46 DOMESTIC 2600 OAKWOOD DR
14F006022 22:47:34 96 BATTERY 2700 JACOBS CREEK RUN
14F006016 22:47:43 33,34 7300 STELLHORN RD & LAHMEYER RD
14F006018 22:54:48 911 HANG UP 600 TENNESSEE AVE
14F006019 23:05:11 102,TX THREATS 2600 CLE ELUM DR
14F006020 23:05:20 EMS 800 TENNESSEE AVE
14F006021 23:08:05 911 HANG UP 1300 PAULDING RD E
14F006023 23:14:23 43 DISTURBANCE 4100 ANTHONY BLVD S
14F006027 23:31:52 22RC RECOVERY 800 POPLAR ST
14F006025 23:38:12 129 9600 TRELLIS CV
14F006026 23:38:30 129 9600 SEA VIEW CV
14F006033 23:56:00 51 THEFT 600 HIGH ST
14F006028 23:56:21 39JO 3600 DUPONT RD E
14F006029 23:57:10 40A AUDIBLE 1200 HANCOCK AVE
Amber Alert

All-America City